User: anonymous   Login
Location: *
(43.4667°N, 11.6833°E)
Time: 00:00:03
(UTC+00:00)
Language:

Cosmos 1633 - Orbit

View from above orbital plane
View from above orbital plane
View from above satellite
View from above satellite

Ground track
Ground track

The orbit data is extracted from the following two-line orbital elements,

1 15592U 85020A   19291.28797977  .00000979  00000-0  31805-4 0  9991
2 15592  82.5402 183.0590 0014121  40.1855 320.0427 15.30544320894706
Epoch (UTC): 18 October 2019 06:54:41
Eccentricity: 0.0014121
inclination: 82.5402°
perigee height: 464 km
apogee height: 484 km
right ascension of ascending node: 183.0590°
argument of perigee: 40.1855°
revolutions per day: 15.30544320
mean anomaly at epoch: 320.0427°
orbit number at epoch: 89470

The dashed part of the orbit path shows where the satellite is in the earth's shadow,  

DLR